Погода в Нижних Серогозах

Украина / Херсонская область     46°50′36″N   34°22′35″E
темп.,
°C
ветер,
м/с
пор.,
м/с
влажн.,
%
обл.,
%
осадки,
мм/ч
давл.,
гПа
погр.,
м
18 мая, вт
вт1800:00+15ююз4987100 0.0 1007350
03:00+13ююз379436 0.0 1006155
06:00+14ю3693100 0.1 1007313
09:00+18ююз57685 0.1 1006814
12:00+21ююз81057100 0.9 10061654
15:00+19ю6870100 1.9 1005997
18:00+19юз6107242 2.2 10041119
21:00+14юз71480100 2.3 1005589
19 мая, ср
ср1900:00+13ююз71385100 0.0 1005500
03:00+12ю5118945 0.0 1005295
06:00+12юз5118864 0.2 1004336
09:00+16юз786536 0.2 10051186
12:00+18юз9115788 0.8 10061690
15:00+15юз81177100 1.1 1007975
18:00+15зюз7127690 0.3 10071124
21:00+13зюз7147819 0.3 1009823
20 мая, чт
чт2000:00+12зюз713875 0.1 1009439
03:00+11зюз514850 0.1 1010420
06:00+11з37900 0.0 1011167
09:00+17юз34654 0.0 1012693
12:00+21ююз455070 0.1 10111617
15:00+23ююв554285 0.1 10101883
18:00+21юв564889 0.0 1010983
21:00+15в41072100 0.0 1010218
21 мая, пт
пт2100:00+14в41173100 0.0 1009232
03:00+13юв3590100 0.0 1009101
06:00+14юз2488100 0.0 1009125
09:00+17ююз2274100 0.0 1009441
12:00+22юз3356100 0.0 1009923
15:00+24з2249100 0.0 10091187
18:00+23ссз2252100 0.0 1008824
21:00+18с3368100 0.0 100939
22 мая, сб
сб2200:00+17ссз3573100 0.0 100877
03:00+17ссз4976100 0.0 1008202
06:00+16с6129072 0.1 1008322
09:00+21с797123 0.1 1009591
12:00+25ссв66542 0.0 10091248
15:00+27ссв665046 0.0 10091679
18:00+27ссв4655100 0.0 10091039
21:00+21ссз5107531 0.0 1010221